Home   Weather   Seattle   Past weeks

Flag for USA Past Weather in Seattle, Washington, USA — Yesterday and Last 2 Weeks

Now
61 °F

Passing clouds.


Feels Like: 61 °F
Forecast: 54 / 66 °F
Wind: 5 mph from North

Location: Seattle Boeing Field

Current Time: Sep 27, 2016 at 8:35:40 PM

Latest Report: Sep 27, 2016 at 7:53 PM


Visibility: 10 mi

Pressure: 30.13 "Hg

Humidity: 48%

Dew Point: 41 °F

Location of SeattleLocation

Past Weather in Seattle — Graph

°F

Seattle Temperature Yesterday

Maximum temperature yesterday: 76 °F (at 4:53 PM)
Minimum temperature yesterday: 58 °F (at 5:53 AM)
Average temperature yesterday: 66 °F

High & Low Weather Summary for the Past Weeks

 TemperatureHumidityPressure
High79 °F (Sep 14, 3:53 PM)93% (Sep 17, 6:53 AM)30.40 "Hg (Sep 17, 6:53 AM)
Low49 °F (Sep 20, 6:53 AM)25% (Sep 14, 2:53 PM)29.87 "Hg (Sep 17, 10:53 AM)
Average62 °F66%30.09 "Hg
* Reported Sep 12 6:53 PM — Sep 27 6:53 PM, Seattle, Weather by CustomWeather, © 2016

Note: Actual official high and low records may vary slightly from our data, if they occured in-between our weather recording intervals... More about our weather records

Advertising

Seattle Weather History for the Previous 24 Hours

Scroll right to see more
 ConditionsComfort  
Time TempWeatherWind HumidityBarometerVisibility
6:53 PM
Tue, Sep 27
63 °FScattered clouds.5 mph43%30.13 "Hg10 mi
5:53 PM65 °FScattered clouds.9 mph40%30.14 "Hg10 mi
4:53 PM68 °FScattered clouds.8 mph38%30.15 "Hg10 mi
3:53 PM68 °FSunny.9 mph40%30.16 "Hg10 mi
2:53 PM68 °FSunny.9 mph39%30.16 "Hg10 mi
1:53 PM67 °FScattered clouds.10 mph45%30.18 "Hg10 mi
12:53 PM66 °FScattered clouds.12 mph47%30.18 "Hg10 mi
11:53 AM67 °FScattered clouds.5 mph42%30.19 "Hg10 mi
10:59 AM67 °FScattered clouds.13 mph42%30.20 "Hg10 mi
10:55 AM67 °FScattered clouds.7 mph41%30.20 "Hg0 mi
9:53 AM63 °FPartly sunny.5 mph52%30.19 "Hg10 mi
8:53 AM62 °FPartly sunny.7 mph67%30.18 "Hg10 mi
7:53 AM62 °FOvercast.12 mph75%30.16 "Hg10 mi
6:53 AM62 °FOvercast.10 mph75%30.15 "Hg10 mi
5:53 AM64 °FLight rain. Mostly cloudy.No wind75%30.15 "Hg10 mi
4:53 AM64 °FMostly cloudy.No wind73%30.13 "Hg10 mi
3:53 AM64 °FMostly cloudy.6 mph73%30.13 "Hg10 mi
2:53 AM65 °FOvercast.3 mph73%30.11 "Hg10 mi
1:53 AM65 °FMostly cloudy.3 mph73%30.10 "Hg10 mi
12:53 AM64 °FPassing clouds.3 mph75%30.09 "Hg10 mi
11:53 PM
Mon, Sep 26
65 °FPassing clouds.5 mph73%30.08 "Hg10 mi
10:53 PM67 °FPassing clouds.No wind68%30.07 "Hg10 mi
9:53 PM67 °FPassing clouds.No wind68%30.05 "Hg10 mi
8:53 PM69 °FPassing clouds.5 mph61%30.03 "Hg10 mi
Weather by CustomWeather, © 2016

See weather overviewHow to use our weather pages